Home   Weather   Krems   Past weeks

Flag for Austria Past Weather in Krems, Lower Austria, Austria — Yesterday and Last 2 Weeks

Now
64 °F

Clear.


Feels Like: 64 °F
Forecast: 48 / 82 °F
Wind: 7 mph from Northeast

Location: Tulln Airport

Current Time: Aug 31, 2016 at 11:54:44 PM

Latest Report: Aug 31, 2016 at 9:50 PM


Visibility: 19 mi

Pressure: 30.15 "Hg

Humidity: 64%

Dew Point: 52 °F

Location of KremsLocation

Past Weather in Krems — Graph

°F

Krems Temperature Yesterday

Maximum temperature yesterday: 79 °F (at 1:50 PM)
Minimum temperature yesterday: 61 °F (at 10:50 PM)
Average temperature yesterday: 70 °F

High & Low Weather Summary for the Past Weeks

 TemperatureHumidityPressure
High90 °F (Aug 28, 2:50 PM)94% (Aug 18, 5:50 AM)30.36 "Hg (Aug 18, 5:50 AM)
Low50 °F (Aug 31, 5:50 AM)32% (Aug 18, 2:50 PM)29.80 "Hg (Aug 18, 3:50 PM)
Average71 °F64%30.10 "Hg
* Reported Aug 16 9:50 PM — Aug 31 9:50 PM, Krems, Weather by CustomWeather, © 2016

Note: Actual official high and low records may vary slightly from our data, if they occured in-between our weather recording intervals... More about our weather records

Advertising

Krems Weather History for the Previous 24 Hours

Scroll right to see more
 ConditionsComfort  
Time TempWeatherWind HumidityBarometerVisibility
9:50 PM
Wed, Aug 31
64 °FClear.7 mph64%30.15 "Hg19 mi
8:50 PM66 °FClear.8 mph60%30.15 "Hg19 mi
7:50 PM68 °FSunny.6 mph56%30.15 "Hg37 mi
6:50 PM73 °FSunny.9 mph44%30.12 "Hg37 mi
5:50 PM77 °FSunny.10 mph39%30.15 "Hg37 mi
4:50 PM77 °FSunny.10 mph42%30.15 "Hg37 mi
3:50 PM77 °FSunny.9 mph42%30.15 "Hg37 mi
3:20 PM77 °FSunny.8 mph39%30.18 "Hg37 mi
2:50 PM77 °FSunny.6 mph39%30.18 "Hg37 mi
1:50 PM77 °FSunny.9 mph39%30.21 "Hg37 mi
12:50 PM73 °FSunny.9 mph47%30.21 "Hg37 mi
11:50 AM72 °FSunny.6 mph47%30.24 "Hg37 mi
11:20 AM70 °FSunny.5 mph50%30.24 "Hg37 mi
10:50 AM66 °FSunny.3 mph60%30.24 "Hg37 mi
9:50 AM64 °FSunny.3 mph60%30.24 "Hg37 mi
7:50 AM55 °FSunny.1 mph82%30.24 "Hg37 mi
6:50 AM50 °FClear.5 mph94%30.27 "Hg37 mi
5:50 AM50 °FFog.3 mph94%30.24 "Hg16 mi
Weather by CustomWeather, © 2016

See weather overviewHow to use our weather pages